Tracking 22881 objects as of 19-Apr-2021
HD Live streaming from Space Station
objects crossing your sky now

UFO 1 (USA 98)

Track UFO 1 (USA 98) now!
UFO 1 (USA 98) is classified as:


NORAD ID: 22563
Int'l Code: 1993-015A
Perigee: 36,057.6 km
Apogee: 36,108.1 km
Inclination: 21.3 °
Period: 1,450.9 minutes
Semi major axis: 42453 km
RCS: 8.2516 m2 (large)
Launch date: March 25, 1993
Source: United States (US)
Launch site: AIR FORCE EASTERN TEST RANGE (AFETR)
aabbcc
Your satellite tracking list
Your tracking list is empty




NASA's NSSDC Master Catalog

Two Line Element Set (TLE):
1 22563U 93015A   21108.54591584  .00000033  00000-0  00000-0 0  9995
2 22563  21.2939 103.1784 0005958 261.5354 298.8048  0.99249263105989
Source of the keplerian elements: AFSPC